CW3157 Weather Reports


Display with metric or nautical units.
time (UTC)temp
F
wind
direction
speed
MPH
gust
MPH
rain 1hr
in
rain 24hr
in
rain mn
in
humidity
%
barometer
mb
20260510065818 48 360 0.0 0.0 0.01 0.05 0.01 89 1010.3
20260510065318 48 360 0.0 0.0 0.01 0.05 0.01 89 1010.2
20260510064818 48 360 0.0 1.0 0.01 0.05 0.01 89 1010.2
20260510064318 48 360 0.0 1.0 0.01 0.05 0.01 89 1010.2
20260510063818 49 360 0.0 1.0 0.01 0.05 0.01 89 1010.4
20260510063248 49 360 1.0 1.0 0.01 0.05 0.01 89 1010.4
20260510061818 51 360 0.0 7.0 0.01 0.05 0.01 89 1010.7
20260510061318 51 360 0.0 7.0 0.01 0.05 0.01 89 1010.8
20260510060748 51 28 1.0 5.0 0.01 0.05 0.01 89 1010.8
20260510060317 51 117 0.0 1.0 0.01 0.05 0.01 89 1010.6
20260510055818 51 117 0.0 3.0 0.00 0.04 0.00 89 1010.6
20260510055317 51 117 0.0 3.0 0.00 0.04 0.00 89 1010.4
20260510054317 51 117 1.0 3.0 0.00 0.04 0.00 89 1010.3
20260510053817 51 117 1.0 3.0 0.00 0.04 0.00 89 1010.3
20260510053247 51 117 1.0 3.0 0.00 0.04 0.00 89 1010.4
20260510052818 51 117 0.0 3.0 0.00 0.04 0.00 89 1010.4
20260510052247 51 117 0.0 2.0 0.00 0.04 0.00 89 1010.4
20260510051817 51 117 0.0 2.0 0.00 0.04 0.00 89 1010.5
20260510051317 51 117 0.0 2.0 0.00 0.04 0.00 89 1010.4
20260510050747 50 117 0.0 0.0 0.00 0.04 0.00 89 1010.4
20260510050317 50 117 0.0 0.0 0.00 0.04 0.00 89 1010.4
20260510045817 49 117 0.0 0.0 0.00 0.04 0.00 89 1010.4
20260510045317 49 117 0.0 0.0 0.00 0.04 0.00 89 1010.4
20260510044317 49 117 0.0 0.0 0.00 0.04 0.00 89 1010.4
20260510043817 49 117 0.0 0.0 0.00 0.04 0.00 89 1010.5
20260510043247 48 117 0.0 0.0 0.00 0.04 0.00 89 1010.4
20260510042817 48 117 0.0 0.0 0.00 0.04 0.00 88 1010.4
20260510042317 49 117 0.0 0.0 0.00 0.04 0.00 88 1010.5
20260510041817 48 117 0.0 0.0 0.00 0.04 0.00 88 1010.4
20260510041317 49 117 0.0 0.0 0.00 0.04 0.00 88 1010.6
20260510040817 48 117 0.0 0.0 0.00 0.04 0.00 88 1010.5
20260510040247 49 117 0.0 0.0 0.00 0.04 0.00 88 1010.7
20260510035817 49 117 0.0 0.0 0.00 0.04 0.00 88 1010.6
20260510035317 49 117 0.0 0.0 0.00 0.04 0.04 88 1010.6
20260510034817 49 117 0.0 0.0 0.00 0.04 0.04 88 1010.6
20260510034317 50 117 0.0 0.0 0.00 0.04 0.04 88 1010.6
20260510033817 50 117 0.0 0.0 0.00 0.04 0.04 88 1010.6
20260510032317 50 117 0.0 0.0 0.00 0.04 0.04 88 1010.6
20260510031817 50 117 0.0 0.0 0.00 0.04 0.04 88 1010.5
20260510031317 50 117 0.0 0.0 0.00 0.04 0.04 88 1010.4
20260510030817 50 117 0.0 0.0 0.00 0.04 0.04 88 1010.4
20260510030317 50 117 0.0 0.0 0.00 0.04 0.04 88 1010.4
20260510025817 50 117 0.0 0.0 0.00 0.04 0.04 88 1010.4
20260510025317 50 117 0.0 0.0 0.00 0.04 0.04 88 1010.4
20260510023816 50 117 0.0 1.0 0.00 0.04 0.04 88 1010.4
20260510023317 50 117 0.0 0.0 0.00 0.04 0.04 88 1010.4
20260510022816 50 117 0.0 0.0 0.00 0.04 0.04 88 1010.3
20260510022317 49 117 0.0 0.0 0.00 0.04 0.04 88 1010.2
20260510021817 49 117 0.0 0.0 0.00 0.04 0.04 87 1010.2
20260510021317 50 117 0.0 1.0 0.00 0.04 0.04 88 1010.2
20260510020817 50 117 0.0 1.0 0.00 0.04 0.04 87 1010.1
20260510020317 50 117 0.0 0.0 0.00 0.04 0.04 87 1010.1
20260510015316 51 117 0.0 2.0 0.00 0.04 0.04 87 1010.1
20260510014316 52 117 1.0 1.0 0.00 0.04 0.04 87 1010.2
20260510013816 52 117 0.0 1.0 0.00 0.04 0.04 87 1010.1
20260510013316 53 117 0.0 2.0 0.00 0.04 0.04 87 1010.1
20260510012817 53 117 0.0 2.0 0.00 0.04 0.04 87 1010.1
20260510012316 54 117 2.0 3.0 0.00 0.04 0.04 87 1010.1
20260510011816 54 117 1.0 3.0 0.00 0.04 0.04 87 1010.0
20260510011316 54 117 2.0 4.0 0.00 0.04 0.04 87 1010.0
20260510010816 54 117 1.0 4.0 0.00 0.04 0.04 87 1009.9
20260510010317 54 117 0.0 4.0 0.00 0.04 0.04 87 1009.9
20260510005817 54 117 1.0 4.0 0.00 0.04 0.04 87 1009.9
20260510005316 54 101 1.0 3.0 0.00 0.04 0.04 87 1009.9
20260510004316 54 101 0.0 3.0 0.00 0.04 0.04 87 1009.7
20260510003816 54 101 0.0 3.0 0.00 0.04 0.04 87 1009.5
20260510003316 54 101 2.0 2.0 0.00 0.04 0.04 87 1009.5
20260510002816 54 101 0.0 2.0 0.00 0.04 0.04 87 1009.6
20260510002316 54 101 0.0 3.0 0.00 0.04 0.04 87 1009.5
20260510001316 53 5 0.0 2.0 0.00 0.04 0.04 87 1009.4
20260510000816 53 5 0.0 2.0 0.00 0.04 0.04 86 1009.4
20260510000318 53 5 0.0 0.0 0.00 0.04 0.04 86 1009.3
20260509235816 53 5 0.0 0.0 0.00 0.04 0.04 86 1009.3
20260509235316 53 5 0.0 2.0 0.00 0.04 0.04 86 1009.2
20260509234816 54 5 0.0 3.0 0.00 0.04 0.04 85 1009.2
20260509234316 54 5 0.0 3.0 0.00 0.04 0.04 86 1009.3
20260509233816 54 5 0.0 1.0 0.00 0.04 0.04 85 1009.3
20260509233316 54 5 0.0 2.0 0.00 0.04 0.04 85 1009.3
20260509232816 54 5 0.0 2.0 0.00 0.04 0.04 85 1009.3
20260509232316 55 5 0.0 0.0 0.00 0.04 0.04 84 1009.3
20260509231816 55 5 0.0 1.0 0.00 0.04 0.04 84 1009.4
20260509231316 56 5 0.0 1.0 0.00 0.04 0.04 83 1009.4
20260509230816 56 5 0.0 2.0 0.00 0.04 0.04 83 1009.4
20260509230316 56 5 1.0 2.0 0.00 0.04 0.04 83 1009.4
20260509225816 56 5 0.0 2.0 0.00 0.04 0.04 82 1009.3
20260509225316 57 5 0.0 2.0 0.00 0.04 0.04 80 1009.2
20260509224816 57 5 0.0 2.0 0.00 0.04 0.04 81 1009.2
20260509224316 58 5 1.0 2.0 0.00 0.04 0.04 79 1009.1
20260509223816 58 5 0.0 2.0 0.00 0.04 0.04 78 1009.1
20260509223316 58 5 2.0 2.0 0.00 0.04 0.04 77 1009.1
20260509222316 58 5 0.0 3.0 0.00 0.04 0.04 79 1009.2
20260509221815 58 5 1.0 6.0 0.00 0.04 0.04 79 1009.2
20260509221316 58 5 2.0 6.0 0.00 0.04 0.04 79 1009.2
20260509220316 59 360 4.0 6.0 0.00 0.04 0.04 80 1009.2
20260509215316 58 276 6.0 6.0 0.00 0.04 0.04 80 1009.3
20260509214816 58 276 2.0 2.0 0.00 0.04 0.04 80 1009.2
20260509213816 58 276 0.0 0.0 0.00 0.04 0.04 82 1009.1
20260509213316 58 276 0.0 0.0 0.00 0.04 0.04 82 1009.1
20260509212815 57 276 0.0 0.0 0.00 0.04 0.04 81 1009.0
20260509212316 57 276 0.0 2.0 0.00 0.04 0.04 80 1009.1
20260509211816 57 276 0.0 2.0 0.00 0.04 0.04 81 1009.3
20260509211315 57 276 0.0 2.0 0.00 0.04 0.04 82 1009.4
20260509210815 57 247 0.0 5.0 0.00 0.04 0.04 81 1009.3
20260509210316 57 247 2.0 5.0 0.00 0.04 0.04 79 1009.4
20260509205817 57 327 1.0 7.0 0.00 0.04 0.04 79 1009.5
20260509205315 57 327 2.0 7.0 0.00 0.04 0.04 79 1009.5
20260509204815 58 237 3.0 9.0 0.00 0.04 0.04 79 1009.6
20260509204315 58 360 5.0 9.0 0.00 0.04 0.04 78 1009.7
20260509203815 59 9 9.0 9.0 0.00 0.04 0.04 78 1009.6
20260509202815 60 9 0.0 8.0 0.00 0.04 0.04 79 1009.8
20260509202315 59 9 4.0 8.0 0.00 0.04 0.04 79 1009.6
20260509201815 60 308 1.0 5.0 0.00 0.04 0.04 80 1009.7
20260509201315 60 308 1.0 4.0 0.00 0.04 0.04 80 1009.7
20260509200815 59 308 0.0 4.0 0.00 0.04 0.04 78 1009.6
20260509195815 58 217 2.0 2.0 0.00 0.04 0.04 80 1009.7
20260509195315 58 217 0.0 2.0 0.00 0.04 0.04 82 1009.8
20260509194815 57 217 1.0 2.0 0.00 0.04 0.04 80 1009.8
20260509194315 57 217 0.0 1.0 0.00 0.04 0.04 80 1009.9
20260509193815 57 217 0.0 2.0 0.00 0.04 0.04 79 1009.9
20260509193315 56 217 0.0 2.0 0.00 0.04 0.04 81 1010.0
20260509192815 56 217 1.0 5.0 0.00 0.04 0.04 82 1010.0
20260509192315 56 217 0.0 5.0 0.00 0.04 0.04 80 1010.0
20260509190815 56 335 2.0 3.0 0.00 0.04 0.04 84 1010.4
20260509190315 55 335 1.0 2.0 0.00 0.04 0.04 84 1010.5
20260509185315 55 335 1.0 3.0 0.01 0.04 0.04 85 1010.6
20260509184815 55 335 0.0 3.0 0.01 0.04 0.04 85 1010.6
20260509183815 55 335 1.0 3.0 0.01 0.04 0.04 85 1010.9
20260509183315 55 335 1.0 2.0 0.01 0.04 0.04 84 1010.9
20260509182815 55 335 0.0 3.0 0.01 0.04 0.04 84 1011.0
20260509182315 55 335 0.0 5.0 0.01 0.04 0.04 84 1011.0
20260509181815 55 335 3.0 5.0 0.01 0.04 0.04 84 1010.9
20260509181315 55 273 2.0 4.0 0.01 0.04 0.04 84 1010.9
20260509180815 55 267 1.0 3.0 0.01 0.04 0.04 84 1011.0
20260509180315 55 267 1.0 3.0 0.01 0.04 0.04 84 1011.0
20260509175815 55 267 0.0 3.0 0.00 0.03 0.03 84 1011.0
20260509175314 55 267 0.0 2.0 0.00 0.03 0.03 84 1011.0
20260509174815 55 267 0.0 3.0 0.00 0.03 0.03 83 1011.0
20260509174315 55 267 2.0 6.0 0.00 0.03 0.03 82 1011.0
20260509173815 55 267 1.0 6.0 0.01 0.03 0.03 82 1011.0
20260509173315 55 327 3.0 6.0 0.01 0.03 0.03 82 1010.9
20260509172815 56 344 0.0 5.0 0.01 0.03 0.03 83 1011.1
20260509172315 56 222 0.0 3.0 0.01 0.03 0.03 84 1011.1
20260509171315 56 222 2.0 4.0 0.01 0.03 0.03 84 1011.1
20260509170815 55 222 2.0 5.0 0.02 0.03 0.03 83 1011.1
20260509165814 55 224 1.0 4.0 0.03 0.03 0.03 84 1010.8
20260509165315 55 224 3.0 4.0 0.03 0.03 0.03 83 1010.5
20260509164814 55 322 3.0 5.0 0.03 0.03 0.03 83 1010.4
20260509164314 55 322 1.0 5.0 0.03 0.03 0.03 84 1010.3
20260509163814 55 286 0.0 6.0 0.02 0.02 0.02 84 1010.4
20260509163314 55 302 0.0 6.0 0.02 0.02 0.02 84 1010.6
20260509162814 55 283 3.0 7.0 0.02 0.02 0.02 83 1010.7
20260509162314 55 355 0.0 7.0 0.02 0.02 0.02 83 1010.7
20260509161814 56 311 2.0 4.0 0.02 0.02 0.02 83 1011.0
20260509161314 56 312 2.0 5.0 0.02 0.02 0.02 82 1011.1
20260509160314 56 288 1.0 5.0 0.01 0.01 0.01 82 1011.4
20260509155814 57 298 3.0 8.0 0.00 0.00 0.00 83 1011.5
20260509154314 57 275 3.0 7.0 0.00 0.00 0.00 81 1011.6
20260509153814 57 267 1.0 7.0 0.00 0.00 0.00 81 1011.6
20260509153314 58 291 0.0 4.0 0.00 0.00 0.00 79 1011.7
20260509152814 57 251 1.0 4.0 0.00 0.00 0.00 79 1011.6
20260509152314 57 235 0.0 4.0 0.00 0.00 0.00 78 1011.6
20260509150314 57 226 2.0 5.0 0.00 0.00 0.00 78 1011.5
20260509145814 56 175 4.0 5.0 0.00 0.00 0.00 78 1011.5
20260509144314 56 152 1.0 2.0 0.00 0.00 0.00 77 1011.4
20260509143814 56 152 0.0 2.0 0.00 0.00 0.00 78 1011.3
20260509143314 56 172 0.0 3.0 0.00 0.00 0.00 77 1011.2
20260509142814 56 172 0.0 3.0 0.00 0.00 0.00 78 1011.3
20260509142314 56 172 0.0 2.0 0.00 0.00 0.00 78 1011.2
20260509141314 56 172 1.0 3.0 0.00 0.00 0.00 78 1011.2
20260509140314 56 172 1.0 6.0 0.00 0.00 0.00 78 1011.1
20260509134813 56 194 1.0 3.0 0.00 0.00 0.00 77 1011.1
20260509134314 56 194 1.0 3.0 0.00 0.00 0.00 78 1011.0
20260509133814 56 253 1.0 7.0 0.00 0.00 0.00 77 1011.1
20260509133314 55 253 2.0 7.0 0.00 0.00 0.00 77 1010.9
20260509132813 56 171 2.0 6.0 0.00 0.00 0.00 79 1011.1
20260509131814 55 161 2.0 4.0 0.00 0.00 0.00 77 1010.9
20260509131313 55 160 0.0 2.0 0.00 0.00 0.00 78 1010.9
20260509130813 55 161 0.0 4.0 0.00 0.00 0.00 77 1011.0
20260509130313 55 161 0.0 4.0 0.00 0.00 0.00 78 1010.9
20260509125813 55 161 1.0 4.0 0.00 0.00 0.00 77 1010.9
20260509125313 55 161 2.0 4.0 0.00 0.00 0.00 78 1011.0
20260509124813 55 193 1.0 3.0 0.00 0.00 0.00 78 1011.0
20260509123813 54 194 0.0 3.0 0.00 0.00 0.00 79 1011.0
20260509123313 54 140 1.0 3.0 0.00 0.00 0.00 79 1010.9
20260509122813 54 121 0.0 2.0 0.00 0.00 0.00 79 1010.9
20260509121813 54 121 2.0 3.0 0.00 0.00 0.00 79 1010.9
20260509120813 53 121 0.0 2.0 0.00 0.00 0.00 79 1011.1
20260509115813 53 121 0.0 2.0 0.00 0.00 0.00 80 1011.0
20260509115313 52 121 0.0 1.0 0.00 0.00 0.00 80 1011.1
20260509114813 52 121 0.0 1.0 0.00 0.00 0.00 81 1011.1
20260509114313 52 121 0.0 2.0 0.00 0.00 0.00 82 1011.1
20260509113813 51 121 1.0 2.0 0.00 0.00 0.00 82 1010.9
20260509113313 52 121 0.0 2.0 0.00 0.00 0.00 81 1011.0
20260509112313 51 121 1.0 3.0 0.00 0.00 0.00 80 1011.0
20260509111813 51 121 0.0 3.0 0.00 0.00 0.00 81 1011.0
20260509111312 51 121 1.0 4.0 0.00 0.00 0.00 82 1010.9
20260509110813 51 125 3.0 4.0 0.00 0.00 0.00 82 1010.9
20260509110313 51 176 1.0 3.0 0.00 0.00 0.00 82 1010.9
20260509104813 50 176 0.0 0.0 0.00 0.00 0.00 83 1010.8
20260509104313 50 176 0.0 0.0 0.00 0.00 0.00 83 1010.7
20260509103812 50 176 0.0 0.0 0.00 0.00 0.00 83 1010.7
20260509103313 50 176 0.0 0.0 0.00 0.00 0.00 83 1010.7
20260509102812 50 176 0.0 0.0 0.00 0.00 0.00 83 1010.6
20260509101813 49 176 0.0 0.0 0.00 0.00 0.00 82 1010.6
20260509101313 50 176 0.0 0.0 0.00 0.00 0.00 82 1010.6
20260509100813 50 176 0.0 0.0 0.00 0.00 0.00 82 1010.6
20260509100312 50 176 0.0 0.0 0.00 0.00 0.00 82 1010.5
20260509095312 50 176 0.0 0.0 0.00 0.00 0.00 81 1010.8
20260509094812 50 176 0.0 0.0 0.00 0.00 0.00 81 1010.8
20260509094313 50 176 0.0 0.0 0.00 0.00 0.00 81 1010.8
20260509093313 50 176 0.0 0.0 0.00 0.00 0.00 81 1010.9
20260509092812 50 176 0.0 0.0 0.00 0.00 0.00 81 1010.9
20260509092312 50 176 0.0 0.0 0.00 0.00 0.00 81 1010.9
20260509091812 50 176 0.0 0.0 0.00 0.00 0.00 81 1011.0
20260509091312 50 176 0.0 0.0 0.00 0.00 0.00 82 1010.9
20260509090812 50 176 0.0 0.0 0.00 0.00 0.00 82 1011.0
20260509090312 50 176 0.0 0.0 0.00 0.00 0.00 81 1011.2
20260509085812 50 176 0.0 0.0 0.00 0.00 0.00 80 1010.9
20260509085312 50 176 0.0 1.0 0.00 0.00 0.00 81 1011.0
20260509084812 50 176 0.0 2.0 0.00 0.00 0.00 80 1011.0
20260509084312 50 176 0.0 2.0 0.00 0.00 0.00 79 1011.1
20260509083812 50 176 0.0 2.0 0.00 0.00 0.00 79 1011.2
20260509083312 50 176 0.0 0.0 0.00 0.00 0.00 80 1011.2
20260509082812 50 176 0.0 2.0 0.00 0.00 0.00 80 1011.3
20260509082312 50 176 0.0 2.0 0.00 0.00 0.00 80 1011.3
20260509081812 50 176 2.0 3.0 0.00 0.00 0.00 78 1011.4
20260509081312 50 176 2.0 3.0 0.00 0.00 0.00 77 1011.3
20260509080812 50 176 2.0 2.0 0.00 0.00 0.00 78 1011.5
20260509075312 50 176 0.0 0.0 0.00 0.00 0.00 78 1011.5
20260509074812 50 176 0.0 0.0 0.00 0.00 0.00 79 1011.5
20260509074312 50 176 0.0 1.0 0.00 0.00 0.00 78 1011.5
20260509073812 50 176 0.0 3.0 0.00 0.00 0.00 78 1011.5
20260509073312 50 176 1.0 3.0 0.00 0.00 0.00 77 1011.5
20260509072812 50 173 1.0 3.0 0.00 0.00 0.00 76 1011.5
20260509072312 49 176 1.0 2.0 0.00 0.00 0.00 77 1011.4
20260509071312 49 176 1.0 3.0 0.00 0.00 0.00 78 1011.4
20260509070812 48 175 1.0 2.0 0.00 0.00 0.00 79 1011.3
20260509070312 48 272 0.0 0.0 0.00 0.00 0.00 78 1011.4